Regional Weather Roundup
Issued by NWS

Home | Current Version | Previous Version | Graphics & Text | Print | Product List | Glossary On
Versions: 1 2 3 4 5 6 7 8 9 10 11 12 13 14 15 16 17 18 19 20 21 22 23 24 25 26 27 28 29 30 31 32 33 34 35 36 37 38 39 40 41 42 43 44 45 46 47 48 49 50
000
ASUS45 KBOU 300007
RWRCO

WEATHER ROUNDUP FOR COLORADO
NATIONAL WEATHER SERVICE DENVER/BOULDER CO
600 PM MDT FRI JUL 29 2016

NOTE: "FAIR" INDICATES FEW OR NO CLOUDS BELOW 12000 FEET WITH NO
SIGNIFICANT WEATHER AND/OR OBSTRUCTIONS TO VISIBILITY.

COZ001>005-013-030-031-300100-
...NORTHWEST COLORADO...

CITY           SKY/WX    TMP DP  RH WIND       PRES   REMARKS
CRAIG          FAIR      86  30  13 W13       30.09S THUNDER
HAYDEN         FAIR      84  34  16 CALM      30.12F
MEEKER         FAIR      89  33  13 VRB3      30.10F
MOUNT WERNER   NOT AVBL
STEAMBOAT SPGS FAIR      85  34  16 W7        30.15F
WALDEN         FAIR      79  30  17 W16G26    30.27S
$$

COZ006>008-011-300100-
...WEST CENTRAL VALLEYS...

CITY           SKY/WX    TMP DP  RH WIND       PRES   REMARKS
GRAND JUNCTION FAIR      94  35  12 N28G41    29.97R
MONTROSE       FAIR      93  36  13 S12       30.05F
EAGLE          SUNNY     90  32  12 NW12G18   30.13F
RIFLE          FAIR      95  32  11 SE5       30.01F
DELTA          NOT AVBL
NUCLA          NOT AVBL
$$

COZ017>023-064>068-300100-
...SOUTHWEST COLORADO...

CITY           SKY/WX    TMP DP  RH WIND       PRES   REMARKS
DURANGO        FAIR      90  29  11 SW10G20   30.10F
CORTEZ         FAIR      95  31  10 VRB5      30.05F
PAGOSA SPRINGS FAIR      87  20   8 W8        30.20F
TELLURIDE      FAIR      78  26  14 NW6       30.38F
WOLF CREEK PAS FAIR      64  27  24 N13G29    30.62S
$$

COZ009-010-012-014-032>034-037-058>063-300100-
...CENTRAL COLORADO...

CITY           SKY/WX    TMP DP  RH WIND       PRES   REMARKS
ASPEN          FAIR      84  29  13 W8G18     30.23S
BUENA VISTA    FAIR      84  24  11 NW20G25   30.23S
COPPER MTN     PTSUNNY   68  21  17 NW15G28   30.62S
BERTHOUD PASS  FAIR      55  41  58 MISG      30.63F
COTTONWOOD PAS FAIR      81  12   7 NW3       30.41R
GUNNISON       FAIR      82  28  14 NW10G18   30.24S
KREMMLING      FAIR      86  18   8 N10       30.21F
LEADVILLE      PTSUNNY   72  24  16 N13G20    30.42F
MONARCH PASS   FAIR      63  21  20 MISG      30.70F
SALIDA         FAIR      80  49  34 SE20G32   30.27R
SUNLIGHT       FAIR      72  34  25 MISG      30.54F
WILKERSON PASS PTSUNNY   57  45  62 S7        30.57F
$$

COZ069>075-300100-
...SAN LUIS VALLEY/SANGRE DE CRISTO MOUNTAINS...

CITY           SKY/WX    TMP DP  RH WIND       PRES   REMARKS
ALAMOSA        FAIR      89  25  10 NW14G26   30.16F
LA VETA PASS   FAIR      63  46  55 NE22G31   30.45F
SAGUACHE       FAIR      88  27  11 NW15G26   30.19F
$$

COZ035-036-038>040-300100-
...NORTHERN COLORADO FRONT RANGE...

CITY           SKY/WX    TMP DP  RH WIND       PRES   REMARKS
DENVER INTL AP FAIR      85  55  35 SE28      30.06S
DMNS CITY PARK   N/A     87  48  26 SW2       30.04F
AURORA         MOSUNNY   86  46  24 N3        30.07F
FRONT RANGE AP PTSUNNY   86  55  35 SE25G35   30.09R
ERIE MUNI ARPT FAIR      87  44  21 E9G16     30.04F
BOULDER MUN AP FAIR      86  50  28 SE5       30.05F
CENTENNIAL     FAIR      84  47  27 CALM      30.09F
BROOMFIELD     MOSUNNY   86  46  25 VRB6      30.08F
LONGMONT       NOT AVBL
$$

COZ041-046-047-076>085-087-088-300100-
...PIKES PEAK/PALMER DIVIDE AND SOUTHERN FOOTHILLS...

CITY           SKY/WX    TMP DP  RH WIND       PRES   REMARKS
COLO. SPRINGS  FAIR      75  55  49 S13       30.19F
A. F. ACADEMY  SUNNY     75  54  46 S14       30.19F
SCHRIEVER AFB  NOT AVBL
ELLICOTT       NOT AVBL
FALCON         NOT AVBL
FORT CARSON    NOT AVBL
LIMON          FAIR      74  57  55 SE16      30.14F
MONUMENT HILL  FAIR      72  54  53 S12G18    30.23F
TRINIDAD       NOT AVBL
$$

COZ042>045-048>051-090-091-300100-
...NORTHEAST COLORADO...

CITY           SKY/WX    TMP DP  RH WIND       PRES   REMARKS
GREELEY ARPT   FAIR      81  57  44 E28       30.04S
AKRON          FAIR      77  58  51 E17G23    30.11R
BURLINGTON     FAIR      81  57  43 SE18      30.09F
WRAY           FAIR      79  52  38 S7        30.09S
STERLING       NOT AVBL
HOLYOKE        NOT AVBL
FORT MORGAN    NOT AVBL
$$

COZ086-089-092>099-300100-
...SOUTHEAST COLORADO...

CITY           SKY/WX    TMP DP  RH WIND       PRES   REMARKS
PUEBLO         FAIR      83  57  41 E13       30.08F
LA JUNTA       FAIR      85  62  46 SE18G28   30.03F
LAMAR          FAIR      83  63  50 SE15      30.02F
SPRINGFIELD      N/A     78  61  55 E13       30.06F
$$



USA.gov is the U.S. government's official web portal to all federal, state and local government web resources and services.